CDT,Max TemperatureF,Mean TemperatureF,Min TemperatureF,Max Dew PointF,MeanDew PointF,Min DewpointF,Max Humidity, Mean Humidity, Min Humidity, Max Sea Level PressureIn, Mean Sea Level PressureIn, Min Sea Level PressureIn, Max VisibilityMiles, Mean VisibilityMiles, Min VisibilityMiles, Max Wind SpeedMPH, Mean Wind SpeedMPH, Max Gust SpeedMPH,PrecipitationIn, CloudCover, Events, WindDirDegrees
2011-10-1,21,18,14,19,17,12,100,91,79,29.81,29.75,29.70,15,14,3,28,18,30,0.00,6,Snow,327
2011-10-2,21,19,17,19,18,16,100,91,80,30.01,29.88,29.75,15,14,0,28,19,26,0.00,7,Fog-Snow,331
2011-10-3,24,20,15,19,18,14,100,88,80,30.11,30.08,30.02,15,14,0,13,6,,0.00,6,Fog-Snow,337
2011-10-4,28,26,23,28,23,18,100,90,80,30.12,30.03,29.90,15,11,0,28,11,33,0.00,8,Snow,167
2011-10-5,30,28,26,28,27,25,100,92,80,29.91,29.81,29.64,15,10,0,31,21,40,0.00,7,Snow,161
2011-10-6,30,28,26,30,29,27,100,100,93,29.60,29.46,29.36,12,2,0,34,22,44,0.00,8,Snow,77
2011-10-7,26,18,10,27,21,9,100,95,85,29.85,29.71,29.52,15,9,0,20,15,,0.00,7,Fog-Snow,315
2011-10-8,12,8,5,10,7,3,92,89,85,29.93,29.89,29.86,15,14,1,25,15,31,0.00,3,Snow,339
2011-10-9,14,10,6,12,8,1,93,85,79,30.18,30.04,29.92,15,15,6,21,13,,0.00,5,Snow,350
2011-10-10,14,8,3,12,6,0,93,88,85,30.35,30.29,30.20,15,12,3,26,19,28,0.00,6,Snow,337
2011-10-11,21,16,10,18,14,9,93,87,68,30.37,30.36,30.34,15,8,0,23,10,30,0.00,8,Snow,322
2011-10-12,19,17,15,18,15,10,100,88,73,30.38,30.32,30.21,15,9,0,14,4,,0.00,8,Snow,56
2011-10-13,15,14,12,12,9,5,86,81,67,30.20,30.11,30.06,15,15,12,21,15,23,0.00,7,Snow,40
2011-10-14,10,6,3,5,1,-2,85,79,67,30.11,30.08,30.02,15,15,12,25,17,31,0.00,4,Fog-Snow,59
2011-10-15,21,14,10,19,13,5,93,90,79,29.99,29.89,29.83,15,6,0,29,22,33,0.00,8,Snow,48
2011-10-16,21,18,12,19,15,9,100,91,85,29.90,29.87,29.84,15,10,0,33,9,44,0.00,8,Snow,303
2011-10-17,8,2,-4,7,-8,-11,92,77,71,30.18,30.07,29.91,15,5,0,34,26,39,0.00,3,Snow,341
2011-10-18,12,6,0,10,3,-8,92,84,72,30.22,30.16,30.06,15,10,1,30,19,31,0.00,6,Snow,332
2011-10-19,3,-2,-7,1,-10,-15,92,76,71,30.06,30.01,29.99,15,13,5,22,14,23,0.00,3,Snow,347
2011-10-20,3,-1,-5,-2,-6,-13,85,76,71,30.08,30.04,29.99,15,14,3,24,14,29,0.00,5,Snow,341
2011-10-21,5,3,1,0,-2,-4,85,78,72,30.09,30.07,30.04,15,14,10,18,14,17,0.00,7,Snow,345
2011-10-22,5,0,-5,1,-4,-11,85,77,71,30.05,30.01,29.92,15,13,5,20,9,18,0.00,6,Snow,11
2011-10-23,8,6,5,5,3,0,92,80,72,29.91,29.81,29.71,15,8,2,15,7,,0.00,8,Snow,186
2011-10-24,10,8,6,7,6,5,92,89,85,29.70,29.62,29.52,15,6,1,21,12,24,0.00,8,Snow,151
2011-10-25,10,5,0,7,2,-6,92,87,78,29.63,29.52,29.46,15,10,3,20,15,,0.00,6,Snow,51
2011-10-26,0,-6,-11,-6,-13,-18,78,75,70,29.83,29.76,29.64,15,13,8,12,7,,0.00,6,Snow,360
2011-10-27,1,-4,-9,-6,-11,-15,78,71,65,29.81,29.72,29.68,15,12,4,26,16,20,0.00,4,Snow,37
2011-10-28,8,0,-9,5,-6,-17,85,80,71,30.02,29.95,29.82,15,10,2,17,11,20,0.00,7,Snow,261
2011-10-29,8,4,0,7,2,-6,92,88,78,30.09,30.07,30.03,15,12,5,17,15,23,0.00,7,Snow,188
2011-10-30,3,2,-2,0,-5,-9,85,73,61,30.04,30.01,29.97,15,14,8,25,17,29,0.00,4,Snow,158
2011-10-31,10,5,0,9,0,-11,92,78,60,29.96,29.89,29.83,15,6,0,36,23,41,0.00,3,Snow,123